Tracking 20724 objects as of 2-Jun-2020
HD Live streaming from Space Station
objects crossing your sky now

COSMOS 1655

Track COSMOS 1655 now!
10-day predictions
COSMOS 1655 is classified as:


NORAD ID: 15751
Int'l Code: 1985-041A
Perigee: 979.8 km
Apogee: 1,021.3 km
Inclination: 83.0 °
Period: 105.0 minutes
Semi major axis: 7371 km
RCS: 1.6706 m2 (large)
Launch date: May 30, 1985
Source: Commonwealth of Independent States (former USSR) (CIS)
Launch site: PLESETSK MISSILE AND SPACE COMPLEX (PKMTR)
aabbcc
Your satellite tracking list
Your tracking list is empty




NASA's NSSDC Master Catalog

Two Line Element Set (TLE):
1 15751U 85041A   20154.36707689  .00000010  00000-0 -62730-5 0  9990
2 15751  82.9504 250.3091 0028171  97.5360 327.1411 13.71710621752538
Source of the keplerian elements: AFSPC